Klamath Falls, OR

6:13 AM PDT on May 30, 2017 (GMT -0700)
Klamath Falls International

Weather History for KLMT - March, 2014

Change the Weather History Date:

Tuesday, March 25, 2014

  Actual Average Record
Temperature  
Mean Temperature 41 °F 39 °F  
Max Temperature 48 °F 52 °F 71 °F (1997)
Min Temperature 33 °F 27 °F 19 °F (2002)
Degree Days  
Heating Degree Days 24 26  
Month to date heating degree days 565 670  
Since 1 July heating degree days 5348 5511  
Cooling Degree Days 0 0  
Month to date cooling degree days 0 0  
Year to date cooling degree days 0 0  
Moisture  
Dew Point 32 °F    
Average Humidity 72    
Maximum Humidity 96    
Minimum Humidity 34    
Precipitation  
Precipitation 0.09 in 0.05 in 0.45 in (1981)
Month to date precipitation 1.45 0.98  
Year to date precipitation 4.10 4.75  
Sea Level Pressure  
Sea Level Pressure 29.79 in    
Wind  
Wind Speed 11 mph (South)    
Max Wind Speed 28 mph    
Max Gust Speed 35 mph    
Visibility 9 miles    
Events Rain    
T = Trace of Precipitation, MM = Missing Value Source: NWS Daily Summary

Daily Weather History Graph

Daily Weather History Graph

Search for Another Location

Airport or City:

Trip Planner

Search our weather history database for the weather conditions in past years. The results will help you decide how hot, cold, wet, or windy it might be!

Date:

Astronomy

Mar. 25, 2014 Rise Set
Actual Time 7:01 AM PDT 7:24 PM PDT
Civil Twilight 6:33 AM PDT 7:52 PM PDT
Nautical Twilight 6:00 AM PDT 8:26 PM PDT
Astronomical Twilight 5:26 AM PDT 8:59 PM PDT
Moon 3:32 AM PDT (3/25) 1:56 PM PDT (3/25)
Length of Visible Light 13h 19m
Length of Day
12h 23m
Waning Crescent, 31% of the Moon is Illuminated
Mar 25
Waning Crescent
Mar 30
New
Apr 7
First Quarter
Apr 15
Full
Apr 22
Last Quarter

Hourly Weather History & Observations

Time (PDT) Temp. Windchill Dew Point Humidity Pressure Visibility Wind Dir Wind Speed Gust Speed Precip Events Conditions
12:53 AM 46.0 °F 41.0 °F 19.9 °F 35% 29.90 in 10.0 mi SSE 10.4 mph - N/A   Clear
1:53 AM 45.0 °F 39.7 °F 26.1 °F 48% 29.88 in 10.0 mi SSE 10.4 mph - N/A   Clear
2:53 AM 45.0 °F 39.7 °F 28.9 °F 53% 29.84 in 10.0 mi SSE 10.4 mph - N/A   Clear
3:53 AM 46.0 °F 39.3 °F 32.0 °F 58% 29.79 in 10.0 mi SSE 16.1 mph - N/A   Clear
4:53 AM 48.0 °F - 30.9 °F 52% 29.77 in 10.0 mi South 18.4 mph - N/A   Clear
5:53 AM 45.0 °F 38.9 °F 28.9 °F 53% 29.77 in 10.0 mi South 12.7 mph - N/A   Clear
6:53 AM 44.1 °F 36.8 °F 28.9 °F 55% 29.77 in 10.0 mi SSE 16.1 mph - N/A   Overcast
7:53 AM 46.0 °F 39.3 °F 28.9 °F 51% 29.76 in 10.0 mi South 16.1 mph - N/A   Overcast
8:25 AM 46.9 °F - 28.0 °F 48% 29.85 in 10.0 mi West 16.1 mph 32.2 mph 0.00 in Rain Light Rain
8:53 AM 41.0 °F 33.1 °F 35.1 °F 79% 29.83 in 10.0 mi West 15.0 mph - 0.00 in Rain Light Rain
9:26 AM 39.9 °F 31.4 °F 35.1 °F 83% 29.87 in 4.0 mi SSW 16.1 mph - 0.01 in Rain Rain
9:53 AM 39.0 °F 31.8 °F 35.1 °F 86% 29.85 in 5.0 mi South 11.5 mph - 0.04 in Rain Light Rain
10:10 AM 37.9 °F 30.5 °F 35.1 °F 89% 29.88 in 6.0 mi South 11.5 mph - 0.01 in Rain Light Rain
10:31 AM 37.9 °F 28.5 °F 35.1 °F 89% 29.87 in 9.0 mi SSE 17.3 mph - 0.01 in Rain Light Rain
10:53 AM 37.9 °F 29.2 °F 35.1 °F 89% 29.86 in 10.0 mi South 15.0 mph - 0.01 in   Overcast
11:22 AM 39.9 °F 30.8 °F 35.1 °F 83% 29.86 in 10.0 mi South 18.4 mph - 0.01 in   Scattered Clouds
11:53 AM 42.1 °F 35.7 °F 36.0 °F 79% 29.83 in 10.0 mi South 11.5 mph - 0.01 in   Partly Cloudy
12:53 PM 44.1 °F 37.4 °F 36.0 °F 73% 29.81 in 10.0 mi SSE 13.8 mph - N/A   Mostly Cloudy
1:53 PM 46.9 °F - 34.0 °F 61% 29.78 in 10.0 mi South 11.5 mph - N/A   Mostly Cloudy
2:53 PM 46.9 °F - 33.1 °F 59% 29.75 in 10.0 mi South 9.2 mph - N/A   Mostly Cloudy
3:53 PM 46.9 °F - 33.1 °F 59% 29.73 in 10.0 mi West 12.7 mph - 0.00 in   Overcast
4:53 PM 46.0 °F 41.4 °F 35.1 °F 66% 29.72 in 10.0 mi West 9.2 mph - 0.00 in   Overcast
5:53 PM 46.0 °F 40.2 °F 35.1 °F 66% 29.72 in 10.0 mi West 12.7 mph - 0.00 in Rain Light Rain
6:53 PM 39.9 °F 31.4 °F 32.0 °F 73% 29.75 in 10.0 mi West 16.1 mph - 0.00 in Rain Light Rain
7:38 PM 37.0 °F 32.4 °F 34.0 °F 89% 29.74 in 6.0 mi WSW 5.8 mph - 0.03 in Rain Light Rain
7:46 PM 37.0 °F 34.5 °F 34.0 °F 89% 29.73 in 10.0 mi South 3.5 mph - 0.03 in   Mostly Cloudy
7:53 PM 36.0 °F 32.1 °F 33.1 °F 89% 29.72 in 10.0 mi South 4.6 mph - 0.03 in   Mostly Cloudy
8:53 PM 34.0 °F 31.0 °F 32.0 °F 92% 29.73 in 10.0 mi NE 3.5 mph - N/A   Partly Cloudy
9:53 PM 34.0 °F - 32.0 °F 92% 29.73 in 10.0 mi Calm Calm - N/A   Overcast
10:53 PM 34.0 °F - 32.0 °F 92% 29.73 in 10.0 mi Calm Calm - N/A   Partly Cloudy
11:53 PM 34.0 °F 28.8 °F 32.0 °F 92% 29.71 in 10.0 mi South 5.8 mph - N/A   Overcast